Tracking 18980 objects as of 21-Feb-2018
HD Live streaming from Space Station
objects crossing your sky now

FENGYUN 1C DEB

Track FENGYUN 1C DEB now!
10-day predictions


NORAD ID: 33600
Int'l Code: 1999-025DCH
Perigee: 490.8 km
Apogee: 879.1 km
Inclination: 96.3 °
Period: 98.3 minutes
Semi major axis: 7055 km
RCS: 0.0008 m2 (small)
Launch date: May 10, 1999
Source: People's Republic of China (PRC)
Launch site: Taiyaun Space Center, China (TSC)

Note: This is SATELLITE DEBRIS
aabbcc
Your satellite tracking list
Your tracking list is empty




NASA's NSSDC Master Catalog

Two Line Element Set (TLE):
1 33600U 99025DCH 18051.34153495  .00001959  00000-0  21496-3 0  9995
2 33600  96.2828  94.2653 0275127 282.7921  74.2675 14.64766198537304
Source of the keplerian elements: AFSPC